| time (UTC) | temp C | wind direction | speed KPH | gust KPH | rain 1hr cm | rain 24hr cm | rain mn cm | humidity % | barometer mb |
| 20260507075204 | 13 | 239 | 9.7 | 22.5 | 0.00 | 0.00 | 0.00 | 74 | 1009.4 |
| 20260507074204 | 14 | 235 | 6.4 | 22.5 | 0.00 | 0.00 | 0.00 | 74 | 1009.3 |
| 20260507073704 | 13 | 231 | 11.3 | 22.5 | 0.00 | 0.00 | 0.00 | 73 | 1009.1 |
| 20260507072704 | 12 | 251 | 8.0 | 22.5 | 0.00 | 0.00 | 0.00 | 77 | 1009.2 |
| 20260507072204 | 12 | 227 | 9.7 | 22.5 | 0.00 | 0.00 | 0.00 | 78 | 1009.2 |
| 20260507070704 | 12 | 229 | 8.0 | 20.9 | 0.00 | 0.00 | 0.00 | 80 | 1009.2 |
| 20260507065704 | 11 | 227 | 9.7 | 20.9 | 0.00 | 0.00 | 0.00 | 84 | 1009.2 |
| 20260507064204 | 10 | 230 | 11.3 | 19.3 | 0.00 | 0.00 | 0.00 | 86 | 1009.1 |
| 20260507061704 | 11 | 244 | 9.7 | 20.9 | 0.00 | 0.00 | 0.00 | 86 | 1009.1 |
| 20260507061204 | 11 | 242 | 11.3 | 20.9 | 0.00 | 0.00 | 0.00 | 87 | 1009.1 |
| 20260507055204 | 10 | 225 | 8.0 | 19.3 | 0.00 | 0.00 | 0.00 | 90 | 1008.8 |
| 20260507051705 | 10 | 220 | 6.4 | 12.9 | 0.00 | 0.00 | 0.00 | 93 | 1008.3 |
| 20260507050704 | 10 | 244 | 8.0 | 14.5 | 0.00 | 0.00 | 0.00 | 93 | 1008.1 |
| 20260507045704 | 10 | 226 | 8.0 | 14.5 | 0.00 | 0.00 | 0.00 | 94 | 1008.1 |
| 20260507044204 | 9 | 225 | 4.8 | 11.3 | 0.00 | 0.00 | 0.00 | 95 | 1007.9 |
| 20260507042204 | 9 | 220 | 3.2 | 4.8 | 0.00 | 0.00 | 0.00 | 95 | 1007.8 |
| 20260507041704 | 9 | 251 | 3.2 | 4.8 | 0.00 | 0.00 | 0.00 | 95 | 1007.6 |
| 20260507034704 | 10 | 214 | 1.6 | 4.8 | 0.00 | 0.00 | 0.00 | 94 | 1007.4 |
| 20260507034205 | 10 | 207 | 3.2 | 4.8 | 0.00 | 0.00 | 0.00 | 94 | 1007.3 |
| 20260507033705 | 10 | 230 | 1.6 | 4.8 | 0.00 | 0.00 | 0.00 | 94 | 1007.1 |
| 20260507033204 | 10 | 230 | 1.6 | 8.0 | 0.00 | 0.00 | 0.00 | 94 | 1007.1 |
| 20260507032704 | 10 | 230 | 3.2 | 8.0 | 0.00 | 0.00 | 0.00 | 94 | 1007.1 |
| 20260507032203 | 10 | 227 | 3.2 | 8.0 | 0.00 | 0.00 | 0.00 | 94 | 1007.1 |
| 20260507031204 | 10 | 233 | 3.2 | 9.7 | 0.00 | 0.00 | 0.00 | 94 | 1007.0 |
| 20260507030704 | 10 | 223 | 3.2 | 9.7 | 0.00 | 0.00 | 0.00 | 94 | 1007.0 |
| 20260507025705 | 10 | 213 | 4.8 | 12.9 | 0.00 | 0.00 | 0.00 | 94 | 1006.9 |
| 20260507025204 | 10 | 225 | 4.8 | 12.9 | 0.00 | 0.00 | 0.00 | 95 | 1006.8 |
| 20260507024704 | 10 | 261 | 4.8 | 12.9 | 0.00 | 0.00 | 0.00 | 95 | 1006.7 |
| 20260507023705 | 10 | 256 | 3.2 | 11.3 | 0.00 | 0.00 | 0.00 | 95 | 1006.8 |
| 20260507021204 | 11 | 239 | 3.2 | 8.0 | 0.00 | 0.00 | 0.00 | 95 | 1006.6 |
| 20260507015704 | 11 | 225 | 4.8 | 12.9 | 0.00 | 0.00 | 0.00 | 95 | 1006.6 |
| 20260507013704 | 11 | 226 | 3.2 | 8.0 | 0.00 | 0.00 | 0.00 | 95 | 1006.3 |
| 20260507012205 | 11 | 233 | 4.8 | 11.3 | 0.00 | 0.00 | 0.00 | 95 | 1006.4 |
| 20260507011704 | 11 | 218 | 3.2 | 8.0 | 0.00 | 0.00 | 0.00 | 95 | 1006.5 |
| 20260507005204 | 11 | 245 | 1.6 | 8.0 | 0.00 | 0.00 | 0.00 | 95 | 1006.3 |
| 20260507003705 | 11 | 223 | 4.8 | 9.7 | 0.00 | 0.00 | 0.00 | 94 | 1006.2 |
| 20260507003204 | 11 | 239 | 4.8 | 9.7 | 0.00 | 0.00 | 0.00 | 94 | 1006.0 |
| 20260507002204 | 11 | 281 | 1.6 | 4.8 | 0.00 | 0.00 | 0.00 | 93 | 1005.9 |
| 20260507001205 | 11 | 260 | 3.2 | 8.0 | 0.00 | 0.00 | 0.00 | 93 | 1005.9 |
| 20260507000704 | 11 | 259 | 1.6 | 4.8 | 0.00 | 0.00 | 0.00 | 93 | 1005.8 |
| 20260507000205 | 12 | 257 | 3.2 | 4.8 | 0.00 | 0.00 | 0.00 | 92 | 1005.8 |
| 20260506235204 | 12 | 290 | 1.6 | 11.3 | 0.00 | 0.00 | 0.00 | 92 | 1005.6 |
| 20260506233704 | 12 | 249 | 4.8 | 19.3 | 0.00 | 0.00 | 0.00 | 93 | 1005.9 |
| 20260506233204 | 12 | 252 | 8.0 | 19.3 | 0.00 | 0.00 | 0.00 | 93 | 1005.9 |
| 20260506232705 | 12 | 250 | 8.0 | 16.1 | 0.00 | 0.00 | 0.00 | 93 | 1005.8 |
| 20260506231704 | 12 | 249 | 4.8 | 19.3 | 0.00 | 0.00 | 0.00 | 93 | 1005.5 |
| 20260506230704 | 12 | 273 | 6.4 | 19.3 | 0.00 | 0.00 | 0.00 | 93 | 1005.2 |
| 20260506230205 | 12 | 223 | 6.4 | 12.9 | 0.00 | 0.00 | 0.00 | 93 | 1005.1 |
| 20260506225704 | 12 | 237 | 1.6 | 12.9 | 0.00 | 0.00 | 0.00 | 93 | 1005.0 |
| 20260506224705 | 12 | 246 | 3.2 | 9.7 | 0.00 | 0.00 | 0.00 | 92 | 1004.9 |
| 20260506223204 | 12 | 288 | 1.6 | 9.7 | 0.00 | 0.00 | 0.00 | 92 | 1004.6 |
| 20260506222705 | 12 | 262 | 1.6 | 14.5 | 0.00 | 0.00 | 0.00 | 92 | 1004.6 |
| 20260506222204 | 12 | 265 | 4.8 | 14.5 | 0.00 | 0.00 | 0.00 | 91 | 1004.6 |
| 20260506221704 | 12 | 261 | 3.2 | 12.9 | 0.00 | 0.00 | 0.00 | 91 | 1004.7 |
| 20260506220706 | 12 | 246 | 4.8 | 14.5 | 0.00 | 0.00 | 0.00 | 91 | 1004.5 |
| 20260506215704 | 12 | 323 | 3.2 | 4.8 | 0.00 | 0.00 | 0.00 | 91 | 1003.9 |
| 20260506214705 | 12 | 32 | 1.6 | 4.8 | 0.00 | 0.00 | 0.00 | 91 | 1003.5 |
| 20260506214204 | 12 | 29 | 1.6 | 4.8 | 0.00 | 0.00 | 0.00 | 91 | 1003.5 |
| 20260506213705 | 12 | 27 | 1.6 | 8.0 | 0.00 | 0.00 | 0.00 | 91 | 1003.3 |
| 20260506213204 | 12 | 355 | 1.6 | 8.0 | 0.00 | 0.00 | 0.00 | 90 | 1003.4 |
| 20260506212704 | 12 | 312 | 3.2 | 12.9 | 0.00 | 0.00 | 0.00 | 90 | 1003.6 |
| 20260506212204 | 12 | 282 | 4.8 | 16.1 | 0.00 | 0.00 | 0.00 | 90 | 1003.8 |
| 20260506211704 | 12 | 280 | 4.8 | 16.1 | 0.00 | 0.00 | 0.00 | 90 | 1003.7 |
| 20260506211204 | 12 | 279 | 8.0 | 16.1 | 0.00 | 0.00 | 0.00 | 90 | 1003.6 |
| 20260506210704 | 12 | 269 | 4.8 | 14.5 | 0.00 | 0.00 | 0.00 | 90 | 1003.6 |
| 20260506205203 | 12 | 280 | 9.7 | 20.9 | 0.00 | 0.00 | 0.00 | 89 | 1003.8 |
| 20260506204703 | 13 | 268 | 8.0 | 20.9 | 0.00 | 0.00 | 0.00 | 89 | 1003.8 |
| 20260506204203 | 13 | 279 | 9.7 | 24.1 | 0.00 | 0.00 | 0.00 | 88 | 1003.6 |
| 20260506203204 | 13 | 301 | 12.9 | 25.7 | 0.00 | 0.00 | 0.00 | 87 | 1003.5 |
| 20260506201203 | 14 | 268 | 9.7 | 22.5 | 0.00 | 0.00 | 0.00 | 86 | 1003.1 |
| 20260506200704 | 14 | 287 | 3.2 | 4.8 | 0.00 | 0.00 | 0.00 | 87 | 1002.6 |
| 20260506195203 | 13 | 25 | 6.4 | 12.9 | 0.00 | 0.00 | 0.00 | 87 | 1002.0 |
| 20260506193703 | 14 | 27 | 4.8 | 14.5 | 0.00 | 0.00 | 0.00 | 89 | 1001.9 |
| 20260506193203 | 14 | 33 | 4.8 | 14.5 | 0.00 | 0.00 | 0.00 | 88 | 1001.9 |
| 20260506192704 | 14 | 30 | 4.8 | 11.3 | 0.00 | 0.00 | 0.00 | 88 | 1001.8 |
| 20260506192203 | 15 | 25 | 3.2 | 11.3 | 0.00 | 0.00 | 0.00 | 87 | 1001.9 |
| 20260506191204 | 15 | 21 | 3.2 | 8.0 | 0.00 | 0.00 | 0.00 | 84 | 1001.6 |
| 20260506185703 | 15 | 44 | 3.2 | 4.8 | 0.00 | 0.00 | 0.00 | 81 | 1001.5 |
| 20260506185204 | 15 | 331 | 3.2 | 4.8 | 0.00 | 0.00 | 0.00 | 79 | 1001.4 |
| 20260506184703 | 16 | 339 | 3.2 | 4.8 | 0.00 | 0.00 | 0.00 | 75 | 1001.3 |
| 20260506184204 | 16 | 305 | 3.2 | 4.8 | 0.00 | 0.00 | 0.00 | 72 | 1001.3 |
| 20260506183704 | 17 | 57 | 0.0 | 4.8 | 0.00 | 0.00 | 0.00 | 72 | 1001.1 |
| 20260506181704 | 17 | 75 | 3.2 | 4.8 | 0.00 | 0.00 | 0.00 | 70 | 1000.7 |
| 20260506181203 | 17 | 81 | 3.2 | 9.7 | 0.00 | 0.00 | 0.00 | 70 | 1000.9 |
| 20260506175703 | 17 | 94 | 3.2 | 4.8 | 0.00 | 0.00 | 0.00 | 69 | 1000.9 |
| 20260506175203 | 17 | 95 | 3.2 | 4.8 | 0.00 | 0.00 | 0.00 | 68 | 1000.8 |
| 20260506172705 | 18 | 111 | 6.4 | 12.9 | 0.00 | 0.00 | 0.00 | 64 | 1000.8 |
| 20260506171703 | 19 | 142 | 4.8 | 19.3 | 0.00 | 0.00 | 0.00 | 63 | 1000.8 |
| 20260506170703 | 19 | 120 | 8.0 | 14.5 | 0.00 | 0.00 | 0.00 | 62 | 1001.0 |
| 20260506170203 | 20 | 125 | 4.8 | 16.1 | 0.00 | 0.00 | 0.00 | 61 | 1001.0 |
| 20260506165703 | 20 | 125 | 9.7 | 19.3 | 0.00 | 0.00 | 0.00 | 61 | 1001.1 |
| 20260506165203 | 20 | 132 | 12.9 | 24.1 | 0.00 | 0.00 | 0.00 | 61 | 1001.1 |
| 20260506164703 | 20 | 145 | 11.3 | 24.1 | 0.00 | 0.00 | 0.00 | 61 | 1001.2 |
| 20260506164203 | 20 | 112 | 8.0 | 25.7 | 0.00 | 0.00 | 0.00 | 60 | 1001.1 |
| 20260506163703 | 20 | 128 | 11.3 | 25.7 | 0.00 | 0.00 | 0.00 | 60 | 1001.2 |
| 20260506163204 | 20 | 146 | 11.3 | 20.9 | 0.00 | 0.00 | 0.00 | 59 | 1001.2 |
| 20260506160703 | 20 | 149 | 14.5 | 24.1 | 0.00 | 0.00 | 0.00 | 59 | 1001.5 |
| 20260506160204 | 20 | 127 | 9.7 | 24.1 | 0.00 | 0.00 | 0.00 | 59 | 1001.5 |
| 20260506155204 | 20 | 115 | 11.3 | 22.5 | 0.00 | 0.00 | 0.00 | 61 | 1001.8 |
| 20260506154703 | 20 | 146 | 11.3 | 20.9 | 0.00 | 0.00 | 0.00 | 61 | 1001.8 |
| 20260506154204 | 20 | 126 | 8.0 | 27.4 | 0.00 | 0.00 | 0.00 | 62 | 1001.8 |
| 20260506152703 | 20 | 128 | 12.9 | 27.4 | 0.00 | 0.00 | 0.00 | 61 | 1002.0 |
| 20260506152203 | 20 | 119 | 9.7 | 27.4 | 0.00 | 0.00 | 0.00 | 62 | 1002.1 |
| 20260506151203 | 20 | 145 | 16.1 | 25.7 | 0.00 | 0.00 | 0.00 | 61 | 1002.1 |
| 20260506150203 | 20 | 126 | 14.5 | 25.7 | 0.00 | 0.00 | 0.00 | 60 | 1002.3 |
| 20260506145703 | 20 | 131 | 11.3 | 25.7 | 0.00 | 0.00 | 0.00 | 60 | 1002.3 |
| 20260506145203 | 20 | 140 | 12.9 | 24.1 | 0.00 | 0.00 | 0.00 | 58 | 1002.4 |
| 20260506144204 | 21 | 150 | 11.3 | 22.5 | 0.00 | 0.00 | 0.00 | 60 | 1002.5 |
| 20260506143703 | 20 | 156 | 9.7 | 20.9 | 0.00 | 0.00 | 0.00 | 61 | 1002.4 |
| 20260506142704 | 20 | 114 | 12.9 | 25.7 | 0.00 | 0.00 | 0.00 | 61 | 1002.5 |
| 20260506142204 | 20 | 134 | 14.5 | 25.7 | 0.00 | 0.00 | 0.00 | 62 | 1002.6 |
| 20260506141703 | 20 | 121 | 12.9 | 24.1 | 0.00 | 0.00 | 0.00 | 64 | 1002.7 |
| 20260506141204 | 20 | 129 | 11.3 | 20.9 | 0.00 | 0.00 | 0.00 | 63 | 1002.7 |
| 20260506140703 | 20 | 130 | 11.3 | 25.7 | 0.00 | 0.00 | 0.00 | 63 | 1002.7 |
| 20260506140203 | 20 | 117 | 12.9 | 25.7 | 0.00 | 0.00 | 0.00 | 62 | 1002.7 |
| 20260506135704 | 20 | 133 | 12.9 | 25.7 | 0.00 | 0.00 | 0.00 | 62 | 1002.7 |
| 20260506134704 | 20 | 169 | 8.0 | 20.9 | 0.00 | 0.00 | 0.00 | 60 | 1002.8 |
| 20260506133704 | 20 | 125 | 9.7 | 27.4 | 0.00 | 0.00 | 0.00 | 62 | 1002.8 |
| 20260506133203 | 20 | 147 | 16.1 | 27.4 | 0.00 | 0.00 | 0.00 | 60 | 1002.8 |
| 20260506132703 | 20 | 149 | 11.3 | 22.5 | 0.00 | 0.00 | 0.00 | 60 | 1002.9 |
| 20260506132204 | 20 | 116 | 11.3 | 22.5 | 0.00 | 0.00 | 0.00 | 59 | 1003.0 |
| 20260506131703 | 21 | 144 | 14.5 | 22.5 | 0.00 | 0.00 | 0.00 | 58 | 1003.1 |
| 20260506131204 | 21 | 157 | 9.7 | 19.3 | 0.00 | 0.00 | 0.00 | 57 | 1003.1 |
| 20260506130204 | 21 | 158 | 6.4 | 20.9 | 0.00 | 0.00 | 0.00 | 58 | 1003.2 |
| 20260506125203 | 20 | 106 | 4.8 | 16.1 | 0.00 | 0.00 | 0.00 | 60 | 1003.3 |
| 20260506124703 | 20 | 115 | 8.0 | 22.5 | 0.00 | 0.00 | 0.00 | 60 | 1003.4 |
| 20260506123204 | 19 | 142 | 11.3 | 22.5 | 0.00 | 0.00 | 0.00 | 60 | 1003.7 |
| 20260506122704 | 20 | 112 | 9.7 | 22.5 | 0.00 | 0.00 | 0.00 | 60 | 1003.7 |
| 20260506121703 | 20 | 127 | 9.7 | 20.9 | 0.00 | 0.00 | 0.00 | 59 | 1003.7 |
| 20260506121203 | 20 | 98 | 6.4 | 19.3 | 0.00 | 0.00 | 0.00 | 61 | 1003.9 |
| 20260506120203 | 20 | 108 | 8.0 | 25.7 | 0.00 | 0.00 | 0.00 | 58 | 1004.0 |
| 20260506115704 | 20 | 145 | 11.3 | 25.7 | 0.00 | 0.00 | 0.00 | 56 | 1004.0 |
| 20260506114204 | 21 | 175 | 9.7 | 29.0 | 0.00 | 0.00 | 0.00 | 55 | 1004.0 |
| 20260506112703 | 20 | 144 | 11.3 | 20.9 | 0.00 | 0.00 | 0.00 | 58 | 1004.2 |
| 20260506111703 | 20 | 205 | 3.2 | 9.7 | 0.00 | 0.00 | 0.00 | 62 | 1004.2 |
| 20260506110203 | 20 | 236 | 4.8 | 11.3 | 0.00 | 0.00 | 0.00 | 61 | 1004.3 |
| 20260506105204 | 20 | 164 | 4.8 | 16.1 | 0.00 | 0.00 | 0.00 | 61 | 1004.3 |
| 20260506104204 | 20 | 191 | 4.8 | 14.5 | 0.00 | 0.00 | 0.00 | 59 | 1004.4 |
| 20260506103204 | 20 | 126 | 3.2 | 9.7 | 0.00 | 0.00 | 0.00 | 63 | 1004.4 |
| 20260506102703 | 20 | 36 | 3.2 | 12.9 | 0.00 | 0.00 | 0.00 | 59 | 1004.5 |
| 20260506102203 | 20 | 193 | 4.8 | 12.9 | 0.00 | 0.00 | 0.00 | 62 | 1004.7 |
| 20260506095704 | 19 | 142 | 6.4 | 11.3 | 0.00 | 0.00 | 0.00 | 63 | 1005.0 |
| 20260506095203 | 20 | 230 | 3.2 | 9.7 | 0.00 | 0.00 | 0.00 | 62 | 1005.0 |
| 20260506092703 | 19 | 211 | 8.0 | 14.5 | 0.00 | 0.00 | 0.00 | 65 | 1005.3 |
| 20260506091204 | 18 | 115 | 6.4 | 14.5 | 0.00 | 0.00 | 0.00 | 69 | 1005.2 |
| 20260506085704 | 18 | 223 | 4.8 | 9.7 | 0.00 | 0.00 | 0.00 | 70 | 1005.3 |
| 20260506085204 | 17 | 260 | 3.2 | 12.9 | 0.00 | 0.00 | 0.00 | 69 | 1005.3 |
| 20260506082203 | 17 | 207 | 4.8 | 11.3 | 0.00 | 0.00 | 0.00 | 71 | 1005.2 |
| 20260506081204 | 16 | 231 | 3.2 | 19.3 | 0.00 | 0.00 | 0.00 | 73 | 1005.2 |